WORLDVIEW-4 (WV-4) (41848 NORAD) Tracking and Keplerian Element Data

This shows tracking and keplerian element data for the satellite.

Feedback or suggestion? Click here.




ElementValue
Catalog41848
NameWORLDVIEW-4 (WV-4)
Epoch Orbit9096
Epoch Day198.77335841
Epoch Year2018
RAAN275.7092
Inclination97.9107
Eccentricity0.0002323
Argument of Perigee128.2278
Mean Anonmoly231.9146
Mean Motion14.84962314
Decay Rate3.8E-07
L11 41848U 16067A 18198.77335841 .00000038 00000-0 10751-4 0 9999
L22 41848 97.9107 275.7092 0002323 128.2278 231.9146 14.84962314 90964

Live tracking and technical data element details for WORLDVIEW-4 (WV-4) (NORAD 41848). WORLDVIEW-4 (WV-4) can be tracked NOW for your location showing map with azimuth and elevation plus other details from your city location.

Track the satellite on the map from your city or location and see movement details for azimuth, elevation, latitude, longitude, range, height, and movement on the map or in text.







IsCatalogInMostPopularTable: catalog: 41848, numindb: 68
Update: records affected: 1



GetName: 41848 WORLDVIEW-4 (WV-4)

Hit Count: updated at: Thu, 19 Jul 2018 03:22:35 GMT